Wind_Speed
1 1 1 1 2 2 3 3 3 4 4 4 4 4 4 4 4 4 3 4 4 4 4 4 3 4 4 4 3 3 4 3 3 2 2 2 3 3 4 5 4 5 6
1 1 2 2 2 3 3 3 3 3 4 4 4 4 4 4 4 4 5 5 5 5 5 5 5 5 5 5 5 4 4 4 4 4 3 3 3 4 4 5 5 6 6
2 2 3 3 3 3 3 3 4 4 4 4 4 5 5 5 5 6 6 6 6 6 6 6 6 6 7 6 6 5 5 5 5 5 5 5 5 5 5 5 6 6 7
3 3 4 4 4 4 4 4 4 5 5 5 5 6 7 6 7 7 7 7 7 8 8 7 7 7 8 8 7 6 6 6 7 6 6 7 6 6 6 6 7 7 6
4 4 4 4 5 5 5 5 5 6 6 6 6 7 7 7 8 8 8 8 8 8 9 9 9 9 8 8 8 7 7 7 8 8 7 7 7 7 7 7 8 7 7
5 5 5 5 6 6 6 6 7 7 6 6 6 7 7 7 8 8 8 9 9 9 10 10 10 9 9 9 9 9 9 8 9 9 9 8 8 9 9 8 8 8 8
6 6 6 6 6 6 6 7 7 8 7 7 7 7 8 8 9 9 9 9 9 9 9 9 10 10 9 10 10 10 10 10 10 10 10 9 9 9 9 10 9 9 9
6 6 6 6 7 7 7 7 8 8 8 8 8 8 8 9 10 9 10 10 9 9 9 9 9 9 9 10 10 11 11 10 10 10 11 11 11 10 10 10 10 10 10
6 7 7 7 8 8 8 7 7 8 8 8 8 8 8 8 9 10 10 10 11 10 9 9 9 9 9 10 11 11 11 11 11 11 11 11 11 11 11 11 10 10 11
7 7 7 7 8 8 8 8 8 8 8 8 7 7 8 8 8 9 9 10 11 9 9 9 9 9 9 10 11 11 11 11 11 11 11 11 11 11 12 11 11 11 11
8 7 7 8 8 8 8 8 7 7 7 8 8 8 8 8 9 9 9 9 9 9 9 9 10 9 10 10 10 11 11 11 11 11 11 11 11 11 12 12 12 11 11
8 8 8 9 9 9 9 8 8 8 7 8 8 8 8 9 9 9 9 9 9 9 9 9 9 9 10 10 11 11 11 11 11 11 11 12 12 12 12 12 12 12 12
9 9 9 9 9 10 9 9 9 8 8 8 8 8 8 8 9 9 9 9 9 9 9 10 10 9 10 10 10 11 11 11 11 11 12 12 12 12 13 13 13 13 13
8 8 9 9 10 10 10 9 9 9 9 9 8 8 8 9 9 9 9 9 9 10 10 10 10 10 10 11 11 11 11 11 11 12 13 12 13 13 13 12 13 13 14
9 9 9 9 10 10 10 9 9 9 9 9 8 8 8 8 8 8 8 9 9 9 10 10 10 10 10 10 11 11 11 12 11 12 12 12 13 13 13 13 12 12 13
9 9 9 9 10 10 10 10 9 9 9 9 9 9 9 8 8 9 9 9 9 9 9 10 9 10 10 10 11 11 12 12 13 13 13 13 13 14 14 13 13 13 13
9 10 10 10 10 10 11 10 10 10 10 10 9 9 9 9 9 9 9 9 9 8 9 9 9 10 10 10 11 12 12 12 13 12 12 12 13 13 13 13 13 13 13
10 10 10 10 10 10 11 11 12 11 11 10 10 10 10 9 9 8 9 9 8 9 9 9 9 9 10 10 11 11 12 13 13 12 12 13 13 13 13 13 13 13 14
10 11 11 10 10 11 11 12 12 12 12 11 10 10 9 9 9 9 9 9 9 9 9 9 10 10 10 11 11 11 12 13 13 12 12 13 13 14 14 14 14 14 14
11 11 12 12 12 12 12 12 12 12 12 11 10 10 10 10 11 11 10 10 10 10 10 10 10 11 11 11 11 11 11 12 12 12 12 13 13 14 14 14 14 14 14
13 13 13 13 13 12 12 12 12 12 12 12 12 12 12 11 11 11 11 11 10 10 10 10 11 11 11 11 11 11 11 11 12 12 13 14 14 14 15 14 14 14 14
13 13 13 13 13 12 12 12 12 13 13 12 12 12 12 12 12 12 12 12 12 12 11 11 11 11 12 12 12 12 12 12 13 13 13 13 14 14 14 14 14 14 14
12 13 13 13 13 13 13 12 12 12 13 13 13 13 13 13 14 13 13 13 13 12 12 12 12 12 12 12 12 12 12 13 13 13 13 13 13 13 14 14 14 14 14
13 14 13 13 13 14 14 13 13 13 13 13 13 14 15 14 14 14 14 14 13 13 13 13 13 13 12 12 13 13 13 13 14 14 14 13 13 13 14 15 15 15 15
14 14 14 14 14 14 14 14 14 14 14 14 14 14 14 15 15 14 14 14 15 14 14 14 14 14 13 13 14 14 14 14 14 14 14 14 14 14 14 14 15 15 15
15 15 15 15 15 15 15 15 15 15 15 15 15 15 15 15 15 15 15 15 16 15 15 15 15 15 15 15 15 15 15 15 15 15 15 14 14 15 15 15 15 15 16
Wind_Direction
207 216 271 294 314 319 323 314 286 263 258 248 241 237 237 232 234 231 233 233 228 232 233 234 239 239 232 221 214 204 199 208 220 223 235 223 214 218 227 216 222 230 225
252 250 268 284 300 306 311 308 297 281 271 251 236 239 241 238 237 238 241 238 235 240 244 250 253 247 243 240 232 225 217 226 232 237 239 240 242 243 245 237 241 244 237
276 272 276 283 288 293 298 295 282 281 285 258 247 249 247 241 242 241 245 244 243 249 253 252 253 250 251 251 249 245 236 236 236 241 243 250 252 252 247 245 246 250 244
276 275 279 278 282 282 284 288 286 282 280 271 262 258 258 251 248 245 248 249 250 254 257 256 253 253 257 257 259 254 242 241 242 248 252 253 253 250 245 246 246 250 247
273 277 282 283 281 279 279 280 282 282 275 274 278 271 265 259 252 252 255 255 256 258 258 258 258 260 259 257 259 257 254 248 246 252 258 257 256 254 251 249 245 250 248
271 274 276 278 284 281 278 277 281 283 283 276 278 274 267 260 255 254 258 259 261 258 258 259 259 258 257 258 259 259 258 254 255 255 257 260 260 258 256 253 250 251 250
273 275 279 275 281 283 279 276 275 277 281 280 281 276 266 260 257 257 257 259 261 258 255 257 257 256 258 259 260 258 258 258 258 255 257 260 259 258 259 255 255 254 254
267 271 274 276 278 280 281 278 275 275 275 275 274 274 272 265 259 259 261 260 259 257 258 259 258 259 259 260 262 262 263 259 257 256 258 258 258 257 258 256 254 255 255
263 266 269 272 275 278 284 283 276 276 274 274 274 272 271 269 263 260 263 263 261 256 257 262 263 264 263 261 262 264 264 262 261 262 260 260 258 257 256 256 257 258 257
257 261 265 269 273 275 280 281 281 279 279 275 274 270 270 265 262 262 264 265 259 253 257 261 263 265 265 264 264 265 265 265 267 264 263 263 261 259 259 259 259 260 261
257 256 260 266 270 271 276 277 276 274 277 276 275 274 272 270 267 267 269 268 265 263 264 265 264 264 265 266 267 267 266 265 266 264 264 263 261 260 260 261 262 263 263
259 259 261 268 271 271 272 274 272 270 271 274 277 280 278 274 273 271 273 270 270 272 273 271 266 268 267 269 268 267 265 265 265 264 263 263 262 261 261 261 260 262 262
264 261 262 265 267 269 270 272 273 273 271 270 271 276 279 275 272 270 272 272 274 275 277 277 273 275 275 273 270 267 266 264 263 263 263 262 261 260 262 262 262 262 262
267 269 269 267 266 266 267 269 272 272 271 269 270 277 279 273 268 269 271 272 275 277 277 278 276 275 276 275 271 266 265 264 263 261 263 261 260 261 261 261 262 261 261
266 269 272 269 266 264 263 265 270 271 271 267 268 275 281 279 275 274 272 274 275 276 275 275 276 276 275 274 271 266 263 264 263 261 264 263 261 261 262 262 261 260 259
270 270 272 273 268 264 264 264 265 267 268 268 272 275 275 276 276 276 276 278 276 274 274 274 274 273 272 272 273 271 268 267 266 262 262 264 261 260 262 263 262 261 260
272 272 273 274 271 268 264 264 265 263 264 267 271 274 274 273 272 275 276 281 280 277 276 276 277 275 272 272 274 272 271 272 269 268 265 264 261 259 259 262 261 259 258
273 271 270 272 273 272 267 265 264 264 263 265 269 272 272 272 273 273 272 276 280 282 281 282 281 277 275 275 276 274 272 272 272 272 269 267 263 261 259 259 259 257 257
270 270 271 272 273 272 268 264 264 263 264 264 265 267 270 270 269 270 270 273 278 280 282 284 282 279 278 276 278 278 276 277 276 273 273 270 266 264 262 259 260 258 257
274 274 273 273 274 275 272 267 264 261 259 259 264 267 271 272 268 267 268 273 276 277 279 283 283 283 282 282 282 279 277 278 278 275 275 274 271 268 265 263 262 258 257
273 275 273 273 273 274 271 267 263 259 258 259 263 265 269 273 272 271 272 273 274 276 279 280 281 280 282 284 283 280 277 278 277 278 277 276 272 269 266 265 262 259 257
271 271 274 272 270 271 270 267 262 259 258 261 264 266 266 269 271 269 271 272 275 277 276 278 278 278 281 283 281 279 279 282 280 279 277 276 272 268 265 263 262 262 261
269 269 272 272 270 270 268 266 262 262 263 262 263 265 268 271 271 270 270 271 275 277 278 277 276 278 282 283 280 279 280 282 284 282 280 277 273 269 267 265 264 263 263
270 271 271 270 268 270 268 265 263 262 262 262 264 267 269 270 271 270 268 269 273 275 277 278 277 278 282 283 280 280 281 281 280 281 280 276 271 268 268 267 267 267 264
269 272 271 269 268 268 267 263 261 261 262 263 265 267 270 270 270 270 269 270 271 272 274 276 278 279 281 282 280 281 281 282 281 280 277 273 270 267 266 267 269 269 267
270 272 272 270 268 269 267 264 263 264 264 265 268 270 271 271 271 270 270 270 270 270 271 273 275 277 279 281 280 280 281 282 283 281 277 273 270 267 266 267 268 268 268
Height
5870 5869 5869 5869 5869 5869 5868 5867 5867 5867 5866 5866 5866 5867 5868 5869 5870 5870 5870 5871 5871 5871 5871 5871 5871 5871 5870 5870 5870 5870 5871 5871 5871 5871 5871 5871 5871 5871 5872 5872 5873 5873 5873
5869 5869 5869 5869 5869 5868 5868 5867 5867 5867 5866 5865 5865 5867 5868 5868 5869 5869 5870 5870 5870 5870 5870 5870 5870 5870 5870 5870 5870 5870 5870 5871 5871 5871 5871 5871 5871 5871 5872 5872 5872 5872 5873
5869 5869 5869 5868 5868 5868 5868 5867 5867 5867 5866 5865 5866 5866 5867 5868 5868 5869 5869 5869 5869 5869 5869 5869 5869 5869 5869 5869 5869 5870 5870 5870 5870 5870 5871 5871 5871 5871 5871 5871 5871 5872 5872
5868 5868 5868 5868 5868 5867 5867 5867 5867 5867 5866 5865 5865 5866 5867 5867 5867 5868 5868 5868 5868 5868 5868 5868 5868 5868 5868 5868 5868 5868 5869 5869 5869 5869 5870 5870 5870 5870 5870 5870 5870 5870 5870
5867 5867 5867 5867 5867 5867 5867 5866 5866 5866 5866 5865 5865 5865 5866 5866 5866 5866 5867 5867 5867 5867 5867 5867 5867 5867 5867 5867 5867 5867 5867 5868 5868 5868 5868 5869 5869 5869 5869 5869 5869 5869 5869
5866 5866 5866 5866 5866 5866 5866 5865 5865 5865 5864 5864 5864 5864 5864 5864 5865 5865 5865 5865 5866 5865 5865 5865 5865 5865 5865 5865 5865 5865 5865 5866 5866 5867 5867 5867 5867 5867 5867 5867 5867 5867 5868
5865 5865 5865 5864 5864 5864 5865 5864 5864 5864 5864 5863 5863 5863 5863 5863 5863 5863 5863 5864 5864 5864 5864 5864 5864 5864 5864 5864 5864 5864 5864 5864 5864 5865 5865 5865 5865 5865 5865 5866 5866 5866 5866
5863 5863 5863 5863 5863 5863 5863 5863 5863 5862 5862 5862 5862 5861 5861 5861 5861 5861 5862 5862 5862 5862 5862 5862 5862 5862 5862 5862 5862 5862 5862 5862 5863 5863 5863 5863 5863 5863 5863 5864 5864 5864 5864
5862 5862 5862 5862 5862 5862 5861 5861 5861 5861 5860 5860 5860 5860 5859 5859 5859 5859 5860 5860 5860 5860 5860 5860 5860 5860 5860 5860 5860 5860 5859 5860 5860 5861 5861 5861 5861 5861 5861 5861 5861 5862 5862
5860 5860 5860 5860 5860 5860 5860 5859 5859 5859 5858 5858 5858 5857 5857 5857 5857 5857 5858 5858 5858 5858 5858 5858 5858 5858 5858 5858 5857 5857 5857 5858 5858 5858 5859 5859 5859 5859 5859 5859 5859 5859 5859
5858 5858 5858 5858 5858 5858 5858 5857 5857 5857 5857 5856 5856 5856 5855 5855 5855 5855 5855 5855 5856 5856 5856 5856 5856 5856 5855 5855 5855 5855 5855 5855 5855 5856 5856 5856 5856 5856 5856 5857 5857 5857 5857
5856 5856 5856 5856 5856 5856 5856 5855 5855 5855 5855 5854 5854 5854 5853 5853 5853 5853 5853 5853 5853 5854 5854 5854 5854 5853 5853 5853 5852 5852 5853 5853 5853 5853 5853 5853 5854 5854 5854 5854 5854 5855 5855
5854 5854 5854 5854 5854 5854 5854 5853 5853 5853 5852 5852 5852 5852 5851 5851 5851 5851 5851 5851 5851 5851 5851 5851 5851 5851 5850 5850 5850 5850 5850 5851 5851 5851 5851 5851 5851 5851 5851 5851 5852 5852 5852
5852 5852 5852 5852 5852 5851 5851 5851 5851 5850 5850 5850 5850 5850 5850 5849 5849 5849 5849 5849 5849 5849 5849 5849 5848 5848 5848 5847 5847 5847 5848 5848 5848 5848 5848 5847 5847 5848 5848 5848 5849 5849 5849
5849 5849 5850 5849 5849 5849 5849 5849 5849 5848 5848 5848 5848 5848 5848 5848 5847 5847 5847 5847 5847 5847 5846 5846 5846 5845 5845 5845 5844 5845 5845 5845 5845 5845 5845 5844 5844 5845 5845 5845 5845 5846 5846
5846 5847 5847 5847 5846 5846 5846 5846 5846 5846 5846 5846 5846 5846 5846 5845 5845 5845 5845 5845 5844 5844 5844 5843 5843 5843 5843 5842 5842 5842 5842 5842 5842 5842 5842 5842 5841 5841 5842 5842 5842 5842 5843
5844 5844 5844 5844 5844 5844 5844 5844 5844 5844 5844 5844 5844 5844 5843 5843 5843 5843 5843 5842 5842 5842 5841 5841 5841 5840 5840 5840 5839 5839 5839 5839 5838 5839 5838 5838 5838 5838 5838 5838 5839 5839 5839
5841 5841 5841 5841 5841 5841 5841 5841 5841 5841 5841 5841 5841 5841 5841 5841 5841 5841 5841 5840 5840 5839 5839 5838 5838 5838 5837 5837 5836 5836 5836 5836 5835 5835 5835 5835 5835 5835 5835 5835 5835 5835 5836
5838 5838 5838 5838 5838 5838 5838 5838 5838 5838 5838 5838 5838 5838 5838 5838 5838 5838 5838 5838 5837 5837 5836 5836 5835 5835 5834 5834 5834 5833 5833 5832 5832 5832 5832 5831 5831 5831 5831 5832 5831 5832 5832
5835 5835 5835 5835 5835 5835 5835 5835 5835 5835 5835 5835 5836 5836 5836 5836 5835 5835 5835 5835 5835 5834 5834 5833 5833 5832 5832 5831 5831 5830 5830 5829 5829 5829 5828 5828 5828 5828 5828 5828 5828 5828 5829
5831 5832 5831 5831 5831 5831 5831 5831 5831 5832 5832 5832 5833 5833 5833 5833 5832 5832 5832 5832 5832 5832 5831 5831 5830 5830 5829 5828 5828 5827 5827 5826 5826 5825 5825 5824 5824 5824 5824 5824 5824 5824 5825
5828 5828 5828 5827 5827 5828 5828 5828 5828 5828 5829 5829 5829 5829 5829 5829 5829 5829 5829 5829 5829 5828 5828 5828 5827 5827 5826 5825 5825 5824 5823 5824 5822 5822 5821 5821 5820 5820 5820 5820 5820 5821 5821
5824 5824 5824 5824 5824 5824 5824 5824 5824 5824 5825 5825 5826 5826 5826 5826 5826 5825 5825 5825 5825 5825 5825 5824 5824 5823 5823 5822 5821 5821 5820 5819 5818 5818 5817 5817 5816 5816 5816 5816 5816 5817 5817
5821 5820 5820 5820 5820 5820 5820 5820 5820 5821 5821 5822 5822 5822 5822 5822 5822 5821 5821 5821 5821 5821 5821 5820 5820 5820 5819 5819 5818 5817 5817 5816 5815 5814 5813 5813 5812 5812 5812 5812 5812 5812 5813
5817 5817 5816 5816 5816 5816 5816 5816 5816 5817 5817 5817 5817 5817 5817 5817 5817 5817 5817 5817 5817 5817 5817 5816 5816 5816 5815 5815 5814 5813 5812 5812 5811 5810 5809 5809 5808 5808 5808 5808 5808 5808 5809
5812 5813 5812 5812 5812 5811 5812 5812 5812 5812 5813 5813 5813 5813 5813 5813 5813 5813 5812 5813 5813 5813 5812 5812 5812 5811 5811 5811 5810 5809 5809 5808 5806 5805 5805 5804 5804 5804 5804 5804 5804 5804 5804